| time (UTC) | temp F | wind direction | speed MPH | gust MPH | rain 1hr in | rain 24hr in | rain mn in | humidity % | barometer mb |
| 20260831014041 | 62 | 280 | 20.0 | 24.0 | 0.00 | 0.06 | 0.06 | 48 | 1007.3 |
| 20260831013537 | 62 | 287 | 23.0 | 27.0 | 0.00 | 0.06 | 0.06 | 46 | 1007.3 |
| 20260831013032 | 62 | 266 | 15.0 | 22.0 | 0.00 | 0.06 | 0.06 | 47 | 1007.5 |
| 20260831012527 | 62 | 293 | 18.0 | 24.0 | 0.00 | 0.06 | 0.06 | 46 | 1007.3 |
| 20260831012026 | 63 | 254 | 18.0 | 21.0 | 0.00 | 0.06 | 0.06 | 46 | 1007.2 |
| 20260831011521 | 63 | 250 | 21.0 | 23.0 | 0.00 | 0.06 | 0.06 | 45 | 1007.3 |
| 20260831011017 | 62 | 277 | 17.0 | 18.0 | 0.00 | 0.06 | 0.06 | 47 | 1007.2 |
| 20260831010517 | 62 | 297 | 18.0 | 21.0 | 0.00 | 0.06 | 0.06 | 47 | 1007.2 |
| 20260831010013 | 63 | 291 | 19.0 | 24.0 | 0.00 | 0.06 | 0.06 | 46 | 1007.0 |
| 20260831005508 | 63 | 269 | 22.0 | 25.0 | 0.00 | 0.06 | 0.06 | 45 | 1007.5 |
| 20260831005007 | 63 | 279 | 20.0 | 25.0 | 0.00 | 0.06 | 0.06 | 45 | 1007.2 |
| 20260831004504 | 63 | 270 | 23.0 | 25.0 | 0.00 | 0.06 | 0.06 | 46 | 1007.2 |
| 20260831003959 | 63 | 283 | 19.0 | 22.0 | 0.00 | 0.06 | 0.06 | 46 | 1007.2 |
| 20260831003455 | 63 | 257 | 11.0 | 13.0 | 0.00 | 0.06 | 0.06 | 48 | 1007.7 |
| 20260831002954 | 63 | 272 | 30.0 | 37.0 | 0.00 | 0.06 | 0.06 | 45 | 1007.5 |
| 20260831002454 | 64 | 276 | 25.0 | 29.0 | 0.00 | 0.06 | 0.06 | 45 | 1007.5 |
| 20260831001949 | 64 | 303 | 13.0 | 16.0 | 0.00 | 0.06 | 0.06 | 45 | 1007.3 |
| 20260831001444 | 64 | 255 | 20.0 | 23.0 | 0.00 | 0.06 | 0.06 | 45 | 1007.2 |
| 20260831000941 | 63 | 287 | 22.0 | 27.0 | 0.00 | 0.06 | 0.06 | 45 | 1007.2 |
| 20260831000439 | 64 | 288 | 30.0 | 32.0 | 0.00 | 0.06 | 0.06 | 43 | 1007.2 |
| 20260830235935 | 64 | 276 | 20.0 | 27.0 | 0.00 | 0.06 | 0.06 | 44 | 1007.5 |
| 20260830235431 | 64 | 291 | 25.0 | 29.0 | 0.00 | 0.06 | 0.06 | 43 | 1007.2 |
| 20260830234926 | 64 | 290 | 25.0 | 33.0 | 0.00 | 0.06 | 0.06 | 43 | 1007.1 |
| 20260830234421 | 64 | 281 | 25.0 | 27.0 | 0.00 | 0.06 | 0.06 | 44 | 1007.1 |
| 20260830233917 | 65 | 268 | 25.0 | 27.0 | 0.00 | 0.06 | 0.06 | 43 | 1007.2 |
| 20260830233412 | 65 | 292 | 22.0 | 29.0 | 0.00 | 0.06 | 0.06 | 42 | 1007.1 |
| 20260830232907 | 65 | 271 | 24.0 | 30.0 | 0.00 | 0.06 | 0.06 | 43 | 1006.9 |
| 20260830232403 | 66 | 264 | 17.0 | 20.0 | 0.00 | 0.06 | 0.06 | 43 | 1006.9 |
| 20260830231900 | 66 | 293 | 20.0 | 27.0 | 0.00 | 0.06 | 0.06 | 42 | 1006.7 |
| 20260830231354 | 66 | 292 | 23.0 | 29.0 | 0.00 | 0.06 | 0.06 | 41 | 1006.7 |
| 20260830230854 | 66 | 271 | 18.0 | 22.0 | 0.00 | 0.06 | 0.06 | 43 | 1007.0 |
| 20260830230349 | 67 | 269 | 22.0 | 26.0 | 0.00 | 0.06 | 0.06 | 41 | 1006.9 |
| 20260830225848 | 66 | 285 | 21.0 | 25.0 | 0.00 | 0.06 | 0.06 | 42 | 1007.0 |
| 20260830225344 | 66 | 281 | 17.0 | 20.0 | 0.00 | 0.06 | 0.06 | 43 | 1007.2 |
| 20260830224839 | 66 | 279 | 24.0 | 29.0 | 0.00 | 0.06 | 0.06 | 42 | 1007.0 |
| 20260830224333 | 67 | 241 | 20.0 | 24.0 | 0.00 | 0.06 | 0.06 | 43 | 1006.8 |
| 20260830223830 | 66 | 263 | 23.0 | 29.0 | 0.00 | 0.06 | 0.06 | 42 | 1007.2 |
| 20260830223326 | 67 | 286 | 23.0 | 27.0 | 0.00 | 0.06 | 0.06 | 42 | 1007.0 |
| 20260830222825 | 66 | 242 | 17.0 | 24.0 | 0.00 | 0.06 | 0.06 | 44 | 1007.2 |
| 20260830222320 | 65 | 253 | 23.0 | 26.0 | 0.00 | 0.06 | 0.06 | 42 | 1007.2 |
| 20260830221815 | 64 | 229 | 9.0 | 11.0 | 0.00 | 0.06 | 0.06 | 47 | 1007.2 |
| 20260830221313 | 63 | 230 | 7.0 | 9.0 | 0.00 | 0.06 | 0.06 | 48 | 1007.2 |
| 20260830220812 | 63 | 232 | 9.0 | 9.0 | 0.00 | 0.06 | 0.06 | 48 | 1007.5 |
| 20260830220312 | 63 | 233 | 9.0 | 10.0 | 0.00 | 0.06 | 0.06 | 47 | 1007.6 |
| 20260830215810 | 63 | 225 | 7.0 | 9.0 | 0.00 | 0.06 | 0.06 | 48 | 1007.5 |
| 20260830215306 | 63 | 244 | 11.0 | 13.0 | 0.00 | 0.06 | 0.06 | 48 | 1007.8 |
| 20260830214800 | 63 | 233 | 7.0 | 9.0 | 0.00 | 0.06 | 0.06 | 49 | 1007.5 |
| 20260830214255 | 62 | 254 | 11.0 | 13.0 | 0.00 | 0.06 | 0.06 | 48 | 1007.8 |
| 20260830213754 | 62 | 240 | 10.0 | 13.0 | 0.00 | 0.06 | 0.06 | 49 | 1007.7 |
| 20260830213249 | 63 | 221 | 9.0 | 10.0 | 0.00 | 0.06 | 0.06 | 48 | 1007.6 |
| 20260830212745 | 63 | 219 | 11.0 | 11.0 | 0.00 | 0.06 | 0.06 | 49 | 1007.3 |
| 20260830212241 | 64 | 290 | 15.0 | 18.0 | 0.00 | 0.06 | 0.06 | 46 | 1007.8 |
| 20260830211740 | 64 | 238 | 17.0 | 22.0 | 0.00 | 0.06 | 0.06 | 46 | 1007.8 |
| 20260830211239 | 64 | 249 | 13.0 | 15.0 | 0.00 | 0.06 | 0.06 | 48 | 1007.9 |
| 20260830210736 | 63 | 244 | 13.0 | 15.0 | 0.00 | 0.06 | 0.06 | 46 | 1008.0 |
| 20260830210234 | 64 | 248 | 18.0 | 22.0 | 0.00 | 0.06 | 0.06 | 46 | 1008.1 |
| 20260830205732 | 64 | 256 | 10.0 | 13.0 | 0.00 | 0.06 | 0.06 | 48 | 1007.9 |
| 20260830205227 | 64 | 279 | 19.0 | 23.0 | 0.00 | 0.06 | 0.06 | 46 | 1007.9 |
| 20260830204722 | 64 | 240 | 20.0 | 23.0 | 0.00 | 0.06 | 0.06 | 44 | 1008.1 |
| 20260830204221 | 64 | 264 | 15.0 | 20.0 | 0.00 | 0.06 | 0.06 | 46 | 1008.0 |
| 20260830203717 | 64 | 276 | 17.0 | 18.0 | 0.00 | 0.06 | 0.06 | 46 | 1008.0 |
| 20260830203213 | 64 | 296 | 9.0 | 11.0 | 0.00 | 0.06 | 0.06 | 46 | 1007.9 |
| 20260830202712 | 63 | 227 | 11.0 | 14.0 | 0.00 | 0.06 | 0.06 | 49 | 1007.8 |
| 20260830202208 | 64 | 244 | 20.0 | 23.0 | 0.00 | 0.06 | 0.06 | 46 | 1008.1 |
| 20260830201707 | 63 | 284 | 14.0 | 18.0 | 0.00 | 0.06 | 0.06 | 50 | 1008.1 |
| 20260830201202 | 63 | 261 | 28.0 | 33.0 | 0.00 | 0.06 | 0.06 | 47 | 1008.2 |
| 20260830200658 | 65 | 279 | 20.0 | 25.0 | 0.00 | 0.06 | 0.06 | 46 | 1008.0 |
| 20260830200157 | 64 | 285 | 24.0 | 29.0 | 0.00 | 0.06 | 0.06 | 45 | 1008.0 |
| 20260830195652 | 64 | 270 | 22.0 | 24.0 | 0.00 | 0.06 | 0.06 | 46 | 1007.7 |
| 20260830195150 | 64 | 288 | 22.0 | 25.0 | 0.00 | 0.06 | 0.06 | 45 | 1007.5 |
| 20260830194650 | 64 | 277 | 14.0 | 16.0 | 0.00 | 0.06 | 0.06 | 45 | 1007.3 |
| 20260830194149 | 65 | 278 | 21.0 | 26.0 | 0.00 | 0.06 | 0.06 | 44 | 1007.8 |
| 20260830193645 | 65 | 258 | 13.0 | 20.0 | 0.00 | 0.06 | 0.06 | 44 | 1007.3 |
| 20260830193144 | 67 | 258 | 11.0 | 13.0 | 0.00 | 0.06 | 0.06 | 40 | 1007.2 |
| 20260830192640 | 67 | 254 | 13.0 | 18.0 | 0.00 | 0.06 | 0.06 | 44 | 1007.6 |
| 20260830192134 | 66 | 239 | 12.0 | 14.0 | 0.00 | 0.06 | 0.06 | 41 | 1007.5 |
| 20260830191625 | 65 | 269 | 17.0 | 18.0 | 0.00 | 0.06 | 0.06 | 44 | 1007.5 |
| 20260830191120 | 65 | 261 | 16.0 | 20.0 | 0.00 | 0.06 | 0.06 | 44 | 1007.3 |
| 20260830190616 | 64 | 258 | 12.0 | 16.0 | 0.00 | 0.06 | 0.06 | 44 | 1007.5 |
| 20260830190110 | 65 | 263 | 16.0 | 21.0 | 0.00 | 0.06 | 0.06 | 44 | 1007.5 |
| 20260830185608 | 66 | 241 | 18.0 | 20.0 | 0.00 | 0.06 | 0.06 | 42 | 1007.5 |
| 20260830185105 | 65 | 257 | 16.0 | 18.0 | 0.00 | 0.06 | 0.06 | 41 | 1007.1 |
| 20260830184603 | 66 | 255 | 21.0 | 24.0 | 0.00 | 0.06 | 0.06 | 40 | 1007.5 |
| 20260830184059 | 66 | 238 | 18.0 | 22.0 | 0.00 | 0.06 | 0.06 | 41 | 1007.6 |
| 20260830183553 | 66 | 237 | 7.0 | 8.0 | 0.00 | 0.06 | 0.06 | 42 | 1007.2 |
| 20260830183049 | 66 | 242 | 12.0 | 15.0 | 0.00 | 0.06 | 0.06 | 42 | 1007.5 |
| 20260830182544 | 66 | 207 | 7.0 | 9.0 | 0.00 | 0.06 | 0.06 | 42 | 1007.3 |
| 20260830182040 | 66 | 245 | 15.0 | 18.0 | 0.00 | 0.06 | 0.06 | 40 | 1007.5 |
| 20260830181536 | 66 | 244 | 10.0 | 11.0 | 0.00 | 0.06 | 0.06 | 42 | 1007.6 |
| 20260830181035 | 66 | 269 | 15.0 | 17.0 | 0.00 | 0.06 | 0.06 | 41 | 1007.7 |
| 20260830180535 | 66 | 258 | 11.0 | 13.0 | 0.00 | 0.06 | 0.06 | 42 | 1007.6 |
| 20260830180034 | 65 | 245 | 11.0 | 13.0 | 0.00 | 0.06 | 0.06 | 42 | 1007.6 |
| 20260830175533 | 65 | 238 | 12.0 | 14.0 | 0.00 | 0.06 | 0.06 | 40 | 1007.8 |
| 20260830175029 | 65 | 229 | 9.0 | 15.0 | 0.00 | 0.06 | 0.06 | 40 | 1007.9 |
| 20260830174524 | 65 | 286 | 15.0 | 17.0 | 0.00 | 0.06 | 0.06 | 40 | 1007.6 |
| 20260830174019 | 65 | 217 | 8.0 | 10.0 | 0.00 | 0.06 | 0.06 | 41 | 1007.5 |
| 20260830173515 | 65 | 230 | 7.0 | 8.0 | 0.00 | 0.06 | 0.06 | 42 | 1007.6 |
| 20260830173010 | 64 | 209 | 10.0 | 14.0 | 0.00 | 0.06 | 0.06 | 44 | 1007.6 |
| 20260830172507 | 64 | 307 | 15.0 | 18.0 | 0.00 | 0.06 | 0.06 | 43 | 1007.8 |
| 20260830172002 | 64 | 220 | 10.0 | 11.0 | 0.00 | 0.06 | 0.06 | 44 | 1007.6 |
| 20260830171457 | 64 | 253 | 9.0 | 11.0 | 0.00 | 0.06 | 0.06 | 51 | 1007.8 |
| 20260830170957 | 63 | 229 | 9.0 | 10.0 | 0.00 | 0.06 | 0.06 | 48 | 1007.8 |
| 20260830170452 | 63 | 237 | 8.0 | 10.0 | 0.00 | 0.06 | 0.06 | 51 | 1008.0 |
| 20260830165950 | 63 | 198 | 5.0 | 8.0 | 0.00 | 0.06 | 0.06 | 54 | 1007.9 |
| 20260830165447 | 62 | 222 | 7.0 | 8.0 | 0.00 | 0.06 | 0.06 | 54 | 1008.1 |
| 20260830164942 | 62 | 151 | 2.0 | 2.0 | 0.00 | 0.06 | 0.06 | 62 | 1008.1 |
| 20260830164438 | 62 | 214 | 3.0 | 6.0 | 0.00 | 0.06 | 0.06 | 60 | 1007.9 |
| 20260830163934 | 61 | 149 | 5.0 | 6.0 | 0.00 | 0.06 | 0.06 | 61 | 1008.0 |
| 20260830163430 | 61 | 196 | 5.0 | 6.0 | 0.00 | 0.06 | 0.06 | 57 | 1008.1 |
| 20260830162929 | 61 | 214 | 5.0 | 6.0 | 0.00 | 0.06 | 0.06 | 58 | 1008.0 |
| 20260830162426 | 61 | 217 | 5.0 | 7.0 | 0.00 | 0.06 | 0.06 | 59 | 1008.1 |
| 20260830161926 | 61 | 182 | 3.0 | 3.0 | 0.00 | 0.06 | 0.06 | 60 | 1008.1 |
| 20260830161425 | 61 | 140 | 4.0 | 6.0 | 0.00 | 0.06 | 0.06 | 62 | 1007.9 |
| 20260830160920 | 60 | 187 | 2.0 | 2.0 | 0.00 | 0.06 | 0.06 | 62 | 1008.2 |
| 20260830160417 | 60 | 220 | 3.0 | 5.0 | 0.00 | 0.06 | 0.06 | 63 | 1007.9 |
| 20260830155911 | 60 | 193 | 4.0 | 5.0 | 0.00 | 0.06 | 0.06 | 65 | 1008.3 |
| 20260830155408 | 59 | 179 | 2.0 | 2.0 | 0.00 | 0.06 | 0.06 | 64 | 1008.2 |
| 20260830154903 | 59 | 220 | 4.0 | 5.0 | 0.00 | 0.06 | 0.06 | 57 | 1008.6 |
| 20260830154359 | 59 | 181 | 3.0 | 3.0 | 0.00 | 0.06 | 0.06 | 62 | 1008.2 |
| 20260830153855 | 60 | 253 | 8.0 | 9.0 | 0.00 | 0.06 | 0.06 | 56 | 1008.7 |
| 20260830153350 | 60 | 200 | 2.0 | 3.0 | 0.00 | 0.06 | 0.06 | 59 | 1008.6 |
| 20260830152849 | 60 | 164 | 3.0 | 5.0 | 0.00 | 0.06 | 0.06 | 60 | 1008.2 |
| 20260830152344 | 60 | 152 | 2.0 | 2.0 | 0.00 | 0.06 | 0.06 | 63 | 1008.2 |
| 20260830151839 | 60 | 168 | 2.0 | 3.0 | 0.00 | 0.06 | 0.06 | 63 | 1008.3 |
| 20260830151338 | 60 | 149 | 3.0 | 3.0 | 0.00 | 0.06 | 0.06 | 65 | 1008.4 |
| 20260830150833 | 60 | 157 | 1.0 | 2.0 | 0.00 | 0.06 | 0.06 | 62 | 1008.7 |
| 20260830150332 | 60 | 127 | 1.0 | 1.0 | 0.00 | 0.06 | 0.06 | 61 | 1008.4 |
| 20260830145827 | 59 | 130 | 0.0 | 0.0 | 0.00 | 0.06 | 0.06 | 62 | 1008.7 |
| 20260830145322 | 59 | 101 | 2.0 | 2.0 | 0.00 | 0.06 | 0.06 | 60 | 1008.7 |
| 20260830144817 | 58 | 137 | 2.0 | 2.0 | 0.00 | 0.06 | 0.06 | 71 | 1008.7 |
| 20260830144313 | 58 | 128 | 2.0 | 2.0 | 0.00 | 0.06 | 0.06 | 74 | 1008.7 |
| 20260830143809 | 56 | 110 | 0.0 | 1.0 | 0.00 | 0.06 | 0.06 | 78 | 1008.6 |
| 20260830143308 | 56 | 105 | 0.0 | 1.0 | 0.00 | 0.06 | 0.06 | 85 | 1008.4 |
| 20260830142803 | 55 | 130 | 0.0 | 0.0 | 0.00 | 0.06 | 0.06 | 90 | 1008.3 |
| 20260830142258 | 54 | 125 | 0.0 | 0.0 | 0.00 | 0.06 | 0.06 | 90 | 1008.2 |
| 20260830141753 | 54 | 116 | 0.0 | 1.0 | 0.00 | 0.06 | 0.06 | 90 | 1008.3 |
| 20260830141248 | 54 | 129 | 0.0 | 0.0 | 0.00 | 0.06 | 0.06 | 89 | 1008.4 |
| 20260830140743 | 55 | 128 | 0.0 | 0.0 | 0.00 | 0.06 | 0.06 | 87 | 1008.2 |
| 20260830140238 | 55 | 112 | 1.0 | 2.0 | 0.00 | 0.06 | 0.06 | 85 | 1008.4 |
| 20260830135732 | 55 | 274 | 3.0 | 3.0 | 0.00 | 0.06 | 0.06 | 84 | 1008.3 |
| 20260830135228 | 55 | 170 | 3.0 | 3.0 | 0.00 | 0.06 | 0.06 | 85 | 1008.4 |
| 20260830134723 | 54 | 244 | 3.0 | 3.0 | 0.00 | 0.06 | 0.06 | 87 | 1008.7 |
| 20260830134218 | 54 | 176 | 2.0 | 2.0 | 0.00 | 0.06 | 0.06 | 88 | 1008.6 |
| 20260830133714 | 55 | 134 | 0.0 | 0.0 | 0.00 | 0.06 | 0.06 | 88 | 1008.6 |
| 20260830133210 | 55 | 128 | 0.0 | 0.0 | 0.00 | 0.06 | 0.06 | 87 | 1008.6 |
| 20260830132705 | 55 | 149 | 1.0 | 1.0 | 0.00 | 0.06 | 0.06 | 86 | 1008.4 |
| 20260830132201 | 55 | 181 | 2.0 | 2.0 | 0.00 | 0.06 | 0.06 | 87 | 1008.4 |
| 20260830131659 | 55 | 171 | 2.0 | 2.0 | 0.00 | 0.06 | 0.06 | 87 | 1008.8 |
| 20260830131200 | 55 | 175 | 2.0 | 2.0 | 0.00 | 0.06 | 0.06 | 87 | 1008.6 |
| 20260830130654 | 55 | 161 | 1.0 | 2.0 | 0.00 | 0.06 | 0.06 | 87 | 1008.8 |
| 20260830130154 | 55 | 139 | 0.0 | 1.0 | 0.00 | 0.06 | 0.06 | 88 | 1008.4 |
| 20260830125649 | 55 | 122 | 1.0 | 1.0 | 0.00 | 0.06 | 0.06 | 89 | 1008.6 |
| 20260830125144 | 55 | 116 | 0.0 | 1.0 | 0.00 | 0.06 | 0.06 | 88 | 1008.6 |
| 20260830124642 | 55 | 137 | 0.0 | 1.0 | 0.00 | 0.06 | 0.06 | 88 | 1008.2 |
| 20260830124137 | 55 | 134 | 0.0 | 0.0 | 0.00 | 0.06 | 0.06 | 89 | 1008.2 |
| 20260830123634 | 55 | 133 | 0.0 | 0.0 | 0.00 | 0.06 | 0.06 | 88 | 1008.2 |
| 20260830123130 | 55 | 135 | 0.0 | 0.0 | 0.00 | 0.06 | 0.06 | 88 | 1008.1 |
| 20260830122627 | 56 | 150 | 1.0 | 1.0 | 0.00 | 0.06 | 0.06 | 87 | 1008.0 |
| 20260830122122 | 55 | 157 | 2.0 | 2.0 | 0.00 | 0.06 | 0.06 | 87 | 1007.9 |
| 20260830121618 | 55 | 236 | 3.0 | 3.0 | 0.00 | 0.06 | 0.06 | 89 | 1007.9 |
| 20260830121117 | 55 | 300 | 5.0 | 6.0 | 0.00 | 0.06 | 0.06 | 89 | 1007.7 |
| 20260830120618 | 55 | 72 | 5.0 | 7.0 | 0.00 | 0.06 | 0.06 | 89 | 1007.1 |
| 20260830120114 | 56 | 77 | 4.0 | 6.0 | 0.00 | 0.06 | 0.06 | 88 | 1007.5 |
| 20260830115610 | 56 | 139 | 0.0 | 1.0 | 0.00 | 0.06 | 0.06 | 87 | 1007.9 |
| 20260830115105 | 56 | 247 | 2.0 | 2.0 | 0.00 | 0.06 | 0.06 | 87 | 1007.7 |
| 20260830114602 | 56 | 280 | 4.0 | 5.0 | 0.00 | 0.06 | 0.06 | 87 | 1007.7 |
| 20260830114101 | 56 | 268 | 4.0 | 5.0 | 0.00 | 0.06 | 0.06 | 87 | 1007.9 |
| 20260830113556 | 56 | 278 | 6.0 | 8.0 | 0.00 | 0.06 | 0.06 | 87 | 1007.9 |
| 20260830113052 | 55 | 253 | 7.0 | 9.0 | 0.00 | 0.06 | 0.06 | 88 | 1008.0 |
| 20260830112548 | 55 | 236 | 6.0 | 8.0 | 0.00 | 0.06 | 0.06 | 90 | 1008.3 |
| 20260830112044 | 56 | 173 | 2.0 | 2.0 | 0.00 | 0.06 | 0.06 | 90 | 1008.4 |
| 20260830111539 | 56 | 273 | 4.0 | 5.0 | 0.00 | 0.06 | 0.06 | 89 | 1007.9 |
| 20260830111035 | 56 | 160 | 1.0 | 2.0 | 0.00 | 0.06 | 0.06 | 89 | 1008.0 |
| 20260830110535 | 56 | 191 | 3.0 | 3.0 | 0.00 | 0.06 | 0.06 | 89 | 1007.9 |
| 20260830110030 | 56 | 257 | 5.0 | 6.0 | 0.00 | 0.06 | 0.06 | 90 | 1008.0 |
| 20260830105525 | 56 | 260 | 7.0 | 8.0 | 0.00 | 0.06 | 0.06 | 90 | 1008.0 |
| 20260830105021 | 56 | 255 | 7.0 | 8.0 | 0.00 | 0.06 | 0.06 | 89 | 1007.9 |
| 20260830104518 | 55 | 239 | 5.0 | 6.0 | 0.00 | 0.06 | 0.06 | 89 | 1007.7 |
| 20260830104014 | 55 | 191 | 4.0 | 5.0 | 0.00 | 0.06 | 0.06 | 89 | 1007.7 |
| 20260830103509 | 55 | 287 | 5.0 | 6.0 | 0.00 | 0.06 | 0.06 | 89 | 1007.6 |
| 20260830103007 | 56 | 286 | 6.0 | 7.0 | 0.00 | 0.06 | 0.06 | 89 | 1007.6 |
| 20260830102502 | 56 | 151 | 2.0 | 2.0 | 0.00 | 0.06 | 0.06 | 87 | 1007.1 |
| 20260830101958 | 56 | 309 | 3.0 | 3.0 | 0.00 | 0.06 | 0.06 | 87 | 1007.0 |
| 20260830101454 | 56 | 122 | 0.0 | 0.0 | 0.00 | 0.06 | 0.06 | 87 | 1007.0 |
| 20260830100953 | 56 | 110 | 2.0 | 2.0 | 0.00 | 0.06 | 0.06 | 88 | 1007.1 |
| 20260830100452 | 56 | 127 | 0.0 | 0.0 | 0.00 | 0.06 | 0.06 | 89 | 1007.1 |
| 20260830095951 | 56 | 156 | 2.0 | 2.0 | 0.00 | 0.06 | 0.06 | 89 | 1007.2 |
| 20260830095447 | 56 | 169 | 1.0 | 2.0 | 0.00 | 0.06 | 0.06 | 89 | 1007.1 |
| 20260830094943 | 56 | 144 | 1.0 | 1.0 | 0.00 | 0.06 | 0.06 | 90 | 1007.1 |
| 20260830094438 | 56 | 218 | 3.0 | 3.0 | 0.00 | 0.06 | 0.06 | 89 | 1007.2 |
| 20260830093934 | 56 | 161 | 2.0 | 2.0 | 0.00 | 0.06 | 0.06 | 88 | 1007.2 |
| 20260830093429 | 56 | 166 | 2.0 | 2.0 | 0.00 | 0.06 | 0.06 | 88 | 1007.5 |
| 20260830092925 | 55 | 227 | 5.0 | 6.0 | 0.00 | 0.06 | 0.06 | 90 | 1007.5 |
| 20260830092421 | 55 | 162 | 2.0 | 2.0 | 0.00 | 0.06 | 0.06 | 91 | 1007.5 |
| 20260830091917 | 55 | 147 | 2.0 | 2.0 | 0.00 | 0.06 | 0.06 | 92 | 1007.8 |
| 20260830091417 | 55 | 139 | 0.0 | 1.0 | 0.00 | 0.06 | 0.06 | 91 | 1007.6 |
| 20260830090916 | 55 | 165 | 2.0 | 2.0 | 0.00 | 0.06 | 0.06 | 91 | 1007.3 |
| 20260830090411 | 55 | 172 | 2.0 | 2.0 | 0.00 | 0.06 | 0.06 | 91 | 1007.3 |
| 20260830085906 | 55 | 214 | 4.0 | 5.0 | 0.00 | 0.06 | 0.06 | 90 | 1007.6 |
| 20260830085401 | 56 | 271 | 5.0 | 6.0 | 0.00 | 0.06 | 0.06 | 91 | 1007.5 |
| 20260830084857 | 55 | 280 | 7.0 | 8.0 | 0.00 | 0.06 | 0.06 | 91 | 1007.7 |
| 20260830084352 | 55 | 267 | 6.0 | 8.0 | 0.05 | 0.06 | 0.06 | 91 | 1008.2 |
| 20260830083847 | 56 | 270 | 8.0 | 10.0 | 0.12 | 0.06 | 0.06 | 91 | 1008.1 |
| 20260830083343 | 56 | 254 | 9.0 | 10.0 | 0.12 | 0.05 | 0.05 | 90 | 1008.4 |
| 20260830082842 | 56 | 238 | 10.0 | 11.0 | 0.12 | 0.04 | 0.04 | 90 | 1008.2 |
| 20260830082337 | 56 | 238 | 11.0 | 13.0 | 0.07 | 0.03 | 0.03 | 90 | 1008.4 |
| 20260830081832 | 56 | 222 | 10.0 | 13.0 | 0.07 | 0.02 | 0.02 | 89 | 1008.7 |
| 20260830081326 | 56 | 251 | 10.0 | 13.0 | 0.07 | 0.02 | 0.02 | 88 | 1008.7 |
| 20260830080821 | 56 | 230 | 9.0 | 11.0 | 0.00 | 0.01 | 0.01 | 88 | 1008.7 |
| 20260830080318 | 56 | 226 | 10.0 | 11.0 | 0.05 | 0.01 | 0.01 | 87 | 1008.6 |
| 20260830075816 | 57 | 236 | 12.0 | 14.0 | 0.05 | 0.01 | 0.01 | 88 | 1008.8 |
| 20260830075312 | 57 | 236 | 15.0 | 20.0 | 0.05 | 0.01 | 0.01 | 88 | 1008.8 |
| 20260830074807 | 58 | 234 | 18.0 | 23.0 | 0.00 | 0.00 | 0.00 | 88 | 1008.3 |
| 20260830074303 | 58 | 245 | 10.0 | 13.0 | 0.00 | 0.00 | 0.00 | 88 | 1008.6 |
| 20260830073759 | 58 | 242 | 10.0 | 14.0 | 0.00 | 0.00 | 0.00 | 87 | 1008.7 |
| 20260830073254 | 59 | 243 | 12.0 | 16.0 | 0.00 | 0.00 | 0.00 | 86 | 1008.7 |
| 20260830072748 | 59 | 251 | 9.0 | 13.0 | 0.00 | 0.00 | 0.00 | 85 | 1008.6 |
| 20260830072244 | 59 | 236 | 13.0 | 16.0 | 0.00 | 0.00 | 0.00 | 84 | 1008.6 |
| 20260830071739 | 59 | 213 | 8.0 | 9.0 | 0.00 | 0.00 | 0.00 | 86 | 1008.1 |
| 20260830071238 | 59 | 225 | 7.0 | 8.0 | 0.00 | 0.00 | 0.00 | 87 | 1007.9 |
| 20260830070731 | 58 | 254 | 11.0 | 13.0 | 0.00 | 0.00 | 0.00 | 88 | 1007.9 |
| 20260830070226 | 58 | 241 | 8.0 | 10.0 | 0.00 | 0.00 | 0.00 | 89 | 1007.7 |
| 20260830065725 | 58 | 263 | 9.0 | 11.0 | 0.00 | 0.00 | 0.00 | 90 | 1007.5 |
| 20260830065220 | 58 | 265 | 7.0 | 8.0 | 0.00 | 0.00 | 0.00 | 90 | 1007.6 |
| 20260830064718 | 58 | 263 | 6.0 | 7.0 | 0.00 | 0.00 | 0.00 | 89 | 1007.1 |
| 20260830064214 | 58 | 266 | 8.0 | 9.0 | 0.00 | 0.00 | 0.00 | 90 | 1007.6 |
| 20260830063708 | 58 | 232 | 7.0 | 9.0 | 0.00 | 0.00 | 0.00 | 90 | 1007.0 |
| 20260830063207 | 58 | 233 | 5.0 | 6.0 | 0.00 | 0.00 | 0.00 | 91 | 1007.1 |
| 20260830062702 | 58 | 212 | 3.0 | 3.0 | 0.00 | 0.00 | 0.00 | 91 | 1007.5 |
| 20260830062157 | 58 | 137 | 0.0 | 0.0 | 0.00 | 0.00 | 0.00 | 91 | 1007.2 |
| 20260830061656 | 58 | 155 | 3.0 | 3.0 | 0.00 | 0.00 | 0.00 | 91 | 1007.1 |
| 20260830061152 | 57 | 136 | 2.0 | 2.0 | 0.00 | 0.00 | 0.00 | 91 | 1007.2 |
| 20260830060649 | 57 | 139 | 0.0 | 1.0 | 0.00 | 0.00 | 0.00 | 92 | 1007.0 |
| 20260830060145 | 57 | 139 | 0.0 | 0.0 | 0.00 | 0.00 | 0.00 | 92 | 1007.0 |
| 20260830055640 | 57 | 140 | 1.0 | 2.0 | 0.00 | 0.56 | 0.56 | 92 | 1007.0 |
| 20260830055137 | 57 | 150 | 1.0 | 1.0 | 0.00 | 0.56 | 0.56 | 92 | 1007.2 |
| 20260830054631 | 57 | 164 | 3.0 | 3.0 | 0.00 | 0.56 | 0.56 | 92 | 1007.2 |
| 20260830054127 | 57 | 161 | 3.0 | 5.0 | 0.00 | 0.56 | 0.56 | 92 | 1007.2 |
| 20260830053622 | 57 | 156 | 3.0 | 3.0 | 0.00 | 0.56 | 0.56 | 92 | 1006.9 |
| 20260830053122 | 57 | 136 | 1.0 | 1.0 | 0.00 | 0.56 | 0.56 | 91 | 1006.8 |
| 20260830052617 | 57 | 137 | 0.0 | 0.0 | 0.00 | 0.56 | 0.56 | 91 | 1007.0 |
| 20260830052112 | 57 | 138 | 0.0 | 0.0 | 0.00 | 0.56 | 0.56 | 91 | 1006.9 |
| 20260830051607 | 57 | 139 | 0.0 | 1.0 | 0.00 | 0.56 | 0.56 | 90 | 1006.8 |
| 20260830051103 | 57 | 169 | 2.0 | 2.0 | 0.00 | 0.56 | 0.56 | 91 | 1007.0 |
| 20260830050601 | 58 | 145 | 0.0 | 1.0 | 0.00 | 0.56 | 0.56 | 91 | 1007.3 |
| 20260830050056 | 58 | 154 | 2.0 | 2.0 | 0.00 | 0.56 | 0.56 | 91 | 1007.2 |
| 20260830045555 | 58 | 150 | 2.0 | 2.0 | 0.00 | 0.56 | 0.56 | 91 | 1007.1 |
| 20260830045050 | 58 | 149 | 2.0 | 2.0 | 0.00 | 0.56 | 0.56 | 91 | 1007.0 |
| 20260830044544 | 58 | 121 | 0.0 | 0.0 | 0.00 | 0.56 | 0.56 | 90 | 1007.5 |
| 20260830044039 | 58 | 131 | 0.0 | 0.0 | 0.00 | 0.56 | 0.56 | 90 | 1007.2 |
| 20260830043535 | 58 | 139 | 0.0 | 0.0 | 0.00 | 0.56 | 0.56 | 89 | 1007.5 |
| 20260830043033 | 59 | 140 | 0.0 | 0.0 | 0.00 | 0.56 | 0.56 | 88 | 1007.2 |
| 20260830042531 | 59 | 141 | 0.0 | 0.0 | 0.00 | 0.56 | 0.56 | 87 | 1007.2 |
| 20260830042026 | 60 | 141 | 0.0 | 0.0 | 0.00 | 0.56 | 0.56 | 86 | 1007.7 |
| 20260830041525 | 60 | 122 | 2.0 | 2.0 | 0.00 | 0.56 | 0.56 | 85 | 1007.5 |
| 20260830041020 | 60 | 103 | 3.0 | 5.0 | 0.00 | 0.56 | 0.56 | 85 | 1007.5 |
| 20260830040515 | 60 | 83 | 2.0 | 2.0 | 0.07 | 0.56 | 0.56 | 84 | 1007.7 |
| 20260830040010 | 59 | 121 | 0.0 | 1.0 | 0.12 | 0.56 | 0.56 | 87 | 1007.8 |
| 20260830035509 | 60 | 139 | 0.0 | 0.0 | 0.24 | 0.55 | 0.55 | 87 | 1007.9 |
| 20260830035004 | 62 | 245 | 4.0 | 5.0 | 0.19 | 0.54 | 0.54 | 83 | 1007.8 |
| 20260830034500 | 63 | 240 | 5.0 | 6.0 | 0.00 | 0.51 | 0.51 | 72 | 1008.3 |
| 20260830033959 | 59 | 230 | 8.0 | 9.0 | 0.00 | 0.51 | 0.51 | 79 | 1008.8 |
| 20260830033454 | 59 | 200 | 7.0 | 8.0 | 0.00 | 0.51 | 0.51 | 87 | 1008.0 |
| 20260830032949 | 59 | 145 | 2.0 | 2.0 | 0.00 | 0.51 | 0.51 | 87 | 1007.5 |
| 20260830032448 | 59 | 137 | 0.0 | 0.0 | 0.00 | 0.51 | 0.51 | 86 | 1007.1 |
| 20260830031944 | 59 | 140 | 1.0 | 1.0 | 0.00 | 0.51 | 0.51 | 86 | 1007.0 |
| 20260830031439 | 59 | 135 | 1.0 | 1.0 | 0.00 | 0.51 | 0.51 | 86 | 1006.9 |
| 20260830030935 | 59 | 112 | 1.0 | 1.0 | 0.00 | 0.51 | 0.51 | 86 | 1006.7 |
| 20260830030430 | 59 | 128 | 0.0 | 0.0 | 0.00 | 0.51 | 0.51 | 86 | 1006.6 |
| 20260830025929 | 59 | 127 | 0.0 | 0.0 | 0.00 | 0.51 | 0.51 | 85 | 1006.6 |
| 20260830025424 | 59 | 130 | 0.0 | 0.0 | 0.00 | 0.51 | 0.51 | 84 | 1006.6 |
| 20260830024923 | 59 | 168 | 0.0 | 1.0 | 0.00 | 0.51 | 0.51 | 84 | 1006.4 |
| 20260830024419 | 60 | 131 | 0.0 | 0.0 | 0.00 | 0.51 | 0.51 | 82 | 1006.5 |
| 20260830023916 | 59 | 62 | 3.0 | 3.0 | 0.00 | 0.51 | 0.51 | 83 | 1006.1 |
| 20260830023415 | 59 | 101 | 1.0 | 1.0 | 0.00 | 0.51 | 0.51 | 85 | 1006.5 |
| 20260830022914 | 59 | 21 | 2.0 | 3.0 | 0.00 | 0.51 | 0.51 | 86 | 1006.6 |
| 20260830022410 | 59 | 49 | 3.0 | 3.0 | 0.00 | 0.51 | 0.51 | 85 | 1006.5 |
| 20260830021909 | 60 | 130 | 0.0 | 0.0 | 0.00 | 0.51 | 0.51 | 84 | 1006.5 |
| 20260830021404 | 60 | 26 | 5.0 | 6.0 | 0.00 | 0.51 | 0.51 | 83 | 1006.3 |
| 20260830020858 | 61 | 40 | 5.0 | 7.0 | 0.00 | 0.51 | 0.51 | 81 | 1006.3 |
| 20260830020353 | 60 | 32 | 6.0 | 9.0 | 0.00 | 0.51 | 0.51 | 81 | 1006.1 |
| 20260830015848 | 60 | 49 | 7.0 | 8.0 | 0.00 | 0.51 | 0.51 | 82 | 1005.9 |
| 20260830015343 | 61 | 31 | 4.0 | 5.0 | 0.00 | 0.51 | 0.51 | 83 | 1006.1 |
| 20260830014838 | 61 | 49 | 3.0 | 3.0 | 0.00 | 0.51 | 0.51 | 82 | 1006.4 |